Hourly Data Report for October 30, 2015

All times are specified in Local Standard Time (LST). Add 1 hour to adjust for Daylight Saving Time where and when it is observed.

KITCHENER/WATERLOO
ONTARIO

43°27'39.000" N
80°22'43.000" W
321.60 m
6144239
71368
YKF

Download Data

Hourly Data (October 2015)
Hourly Data Report for October 30, 2015
Temp Definition
°C
Dew Point Temp Definition
°C
Rel Hum Definition
%
Wind Dir Definition
10's deg

Wind Spd Definition
km/h
Visibility Definition
km
Stn Press Definition
kPa
Hmdx Definition


Wind Chill Definition


Weather Definition


TIME
00:00 Legend Double Dagger 6.0 4.8 92 30 26 16.1 96.97     Rain
01:00 Legend Double Dagger 5.4 3.6 88 30 22 16.1 97.08     LegendNANA
02:00 Legend Double Dagger 4.3 2.7 89 31 17 16.1 97.17     LegendNANA
03:00 Legend Double Dagger 3.0 1.8 92 30 9 16.1 97.28     LegendNANA
04:00 Legend Double Dagger 2.5 1.6 94 30 11 16.1 97.38     LegendNANA
05:00 Legend Double Dagger 2.3 0.7 89 29 8 16.1 97.51     LegendNANA
06:00 Legend Double Dagger 1.6 0.8 95 28 8 16.1 97.63     LegendNANA
07:00 Legend Double Dagger 1.7 0.5 92 28 11 16.1 97.73     LegendNANA
08:00 Legend Double Dagger 3.0 1.4 89 31 9 16.1 97.85     LegendNANA
09:00 Legend Double Dagger 4.6 1.2 79 31 18 16.1 97.95     LegendNANA
10:00 Legend Double Dagger 6.1 -0.3 64 33 21 16.1 98.00     LegendNANA
11:00 Legend Double Dagger 6.3 0.2 65 33 15 16.1 98.05     LegendNANA
12:00 Legend Double Dagger 6.1 -0.3 63 33 17 16.1 98.04     LegendNANA
13:00 Legend Double Dagger 7.9 -0.2 57 31 17 16.1 98.05     LegendNANA
14:00 Legend Double Dagger 8.1 0.3 58 27 11 16.1 98.03     LegendNANA
15:00 Legend Double Dagger 8.2 -0.3 55 29 17 16.1 98.06     LegendNANA
16:00 Legend Double Dagger 7.3 -0.1 59 30 15 16.1 98.11     LegendNANA
17:00 Legend Double Dagger 5.9 -0.2 65 31 13 16.1 98.09     LegendNANA
18:00 Legend Double Dagger 4.0 -0.6 72 31 8 16.1 98.14     LegendNANA
19:00 Legend Double Dagger 0.4 -1.5 87   0 16.1 98.13     LegendNANA
20:00 Legend Double Dagger -1.1 -1.7 96   0 16.1 98.15     LegendNANA
21:00 Legend Double Dagger -1.0 -2.0 93 LegendMM 4 16.1 98.16   -2 LegendNANA
22:00 Legend Double Dagger -2.0 -2.3 98   0 16.1 98.19     LegendNANA
23:00 Legend Double Dagger -2.5 -2.6 99   0 4.8 98.13     Fog

Notes on Data Quality.

Legend

  • E = Estimated
  • M = Missing
  • NA = Not Available
  • ‡ = Partner data that is not subject to review by the National Climate Archives
Date modified: